Regional Weather Roundup
Issued by NWS

Home | Current Version | Previous Version | Text Only | Print | Product List | Glossary Off
Versions: 1 2 3 4 5 6 7 8 9 10 11 12 13 14 15 16 17 18 19 20 21 22 23 24 25 26 27 28 29 30 31 32 33 34 35 36 37 38 39 40 41 42 43 44 45 46 47 48 49 50

000
ASUS43 KLOT 280206
RWRIL

ILLINOIS REGIONAL WEATHER ROUNDUP
NATIONAL WEATHER SERVICE CHICAGO/ROMEOVILLE IL
900 PM CDT WED AUG 27 2014

NOTE: "FAIR" INDICATES FEW OR NO CLOUDS BELOW 12,000 FEET WITH NO
SIGNIFICANT WEATHER AND/OR OBSTRUCTIONS TO VISIBILITY.

* THESE STATIONS ARE NOT UNDER NWS QUALITY CONTROL. THEY ALSO MAY NOT
  REPORT WEATHER SUCH AS PRECIPITATION OR FOG.

ILZ001-002-007-009-015-016-024-280300-
NORTHWEST ILLINOIS

CITY           SKY/WX    TMP DP  RH WIND       PRES   REMARKS
MOLINE         CLEAR     69  63  81 CALM      30.10R
STERLING*      PTCLDY    66  61  82 CALM      30.11R
SAVANNA*       CLEAR     68  62  80 CALM      30.11R
$$

ILZ003-004-008-010-011-017-018-280300-
NORTH CENTRAL ILLINOIS

CITY           SKY/WX    TMP DP  RH WIND       PRES   REMARKS
ROCKFORD       MOCLDY    71  62  73 NE9       30.13R
FREEPORT*      CLEAR     64  62  92 CALM      30.15R
ROCHELLE*      PTCLDY    66  62  86 E5        30.12R
DE KALB*       PTCLDY    65  63  91 E6        30.13R
PERU*          MOCLDY    72  64  76 NE7       30.10S
$$

ILZ005-006-012>014-019>023-280300-
NORTHEAST ILLINOIS

CITY           SKY/WX    TMP DP  RH WIND       PRES   REMARKS
CHICAGO-OHARE  MOCLDY    70  59  68 NE8       30.12R
CHICAGO-MIDWAY MOCLDY    72  62  71 E7        30.11R
AURORA         PTCLDY    69  62  78 NE7       30.11R
LANSING*       PTCLDY    68  60  75 NE5       30.13R
JOLIET*        MOCLDY    68  60  73 E6        30.13R
WAUKEGAN       PTCLDY    64  60  87 NE5       30.12R
DUPAGE AIRPORT PTCLDY    68  61  78 CALM      30.12R
KANKAKEE*      MOCLDY    67  63  85 NE6       30.12R
WHEELING       PTCLDY    69  62  78 CALM      30.14R
MORRIS*        MOCLDY    68  66  91 E5        30.11R
ROMEOVILLE*    PTCLDY    67  60  78 E7        30.12R
NORTHERLY ISL    N/A     70  61  73 NE10        N/A
$$

LMZ740>746-280300-
SOUTHERN LAKE MICHIGAN

STATION/POSITION SKY/WX   TEMP    WIND        PRES    VSBY  WAVE
                          AIR SEA DIR/SP/G                  HT/PER
                          (F)     (DEG/KT/KT) (MB)    (MI)  (FT/S)
SOUTHERN BUOY              69 69   30/ 16/ 17 1019.9R         2/ 3
WAUKEGAN HARBOR            68      60/  9/ 11   N/A
HARRISON CRIB              69      60/ 10/ 11   N/A
BURNHAM HARBOR             70      50/  8/ 11   N/A
CALUMET HARBOR             70      40/  8/ 11 1018.7R
MICHIGAN CITY              69      20/ 15/ 18   N/A
MICHIGAN CITY 6N           70 74   50/ 14/ 17   N/A           3/ 4
ST. JOSEPH                 69 73   50/ 10/ 16   N/A           3/ 4
$$

ILZ025>027-034>036-040-047-049-050-058-095>099-280300-
WEST-CENTRAL ILLINOIS

CITY           SKY/WX    TMP DP  RH WIND       PRES   REMARKS
QUINCY         CLOUDY    78  73  84 E3        30.06F HX  81
GALESBURG*     PTCLDY    69  66  88 N6        30.10S
MACOMB*        MOCLDY    73  71  92 NE3       30.10S
JACKSONVILLE*  CLOUDY    79  74  86 SE5       30.09S HX  82
PITTSFIELD*    CLOUDY    77  72  83 CALM      30.07F
$$

ILZ028>032-037-038-041>044-048-051>054-059>061-280300-
CENTRAL ILLINOIS

CITY           SKY/WX    TMP DP  RH WIND       PRES   REMARKS
PONTIAC        MOCLDY    73  68  83 E6        30.11R
DECATUR        CLEAR     74  71  91 NE7       30.09R
PEORIA         CLOUDY    77  65  66 E5        30.09R
LACON*         MOCLDY    73  65  77 CALM      30.08S
LINCOLN*       PTCLDY    75  70  86 CALM      30.05S
SPRINGFIELD    CLOUDY    75  73  93 CALM      30.09R
TAYLORVILLE    MOCLDY    72  70  94 CALM      30.08S
$$

ILZ033-039-045-046-055>057-062-063-280300-
EAST-CENTRAL ILLINOIS

CITY           SKY/WX    TMP DP  RH WIND       PRES   REMARKS
CHAMPAIGN      PTCLDY    74  67  78 NE7       30.09R
DANVILLE*      PTCLDY    71  67  87 NE7       30.07S
RANTOUL*       PTCLDY    75  66  72 NE6       30.10S
MATTOON        PTCLDY    76  72  87 CALM      30.07R
PARIS*         MOCLDY    75  71  88 NE3       30.10R
$$

ILZ079-100>102-280300-
SOUTHWEST ILLINOIS

CITY           SKY/WX    TMP DP  RH WIND       PRES   REMARKS
BELLEVILLE     CLOUDY    73  73  99 E7        30.07S
CAHOKIA*       LGT RAIN  75  72  88 E5        30.05
SPARTA*        LGT RAIN  73  71  93 E9        30.09F
$$

ILZ064>066-069>071-074>076-080>082-084>086-088>090-092>094-280300-
SOUTH-CENTRAL ILLINOIS

CITY           SKY/WX    TMP DP  RH WIND       PRES   REMARKS
CARBONDALE     CLOUDY    79  69  71 N18G25    30.07R HX  81
CAIRO*         MOCLDY    82  75  81 CALM      30.04R HX  88
EFFINGHAM*     RAIN      73  69  88 CALM      30.09R
MARION         CLOUDY    82  73  74 N5        30.07R HX  88
MT. VERNON     CLOUDY    75  66  73 NW7G16    30.12R THUNDER
SALEM*         TSTM      74  70  88 W25G31    30.10R
METROPOLIS*    MOCLDY    79  75  86 CALM      30.04R HX  83
$$

ILZ067-068-072-073-078-083-087-091-280300-
SOUTHEAST ILLINOIS

CITY           SKY/WX    TMP DP  RH WIND       PRES   REMARKS
LAWRENCEVILLE  CLOUDY    78  73  84 CALM      30.05F HX  81
FLORA*         CLOUDY    76  70  83 NE6       30.08R
FAIRFIELD*     CLOUDY    77  73  88 CALM      30.07R
HARRISBURG*    CLOUDY    80  74  80 N3        30.07R HX  85
ROBINSON*      CLOUDY    77  73  87 CALM      30.08R
CARMI*           N/A     77  72  85 N8        30.07R
$$

ABBREVIATIONS USED IN REMARKS
   TC - TEMPERATURE IN CELSIUS
  WCI - WIND CHILL INDEX
   HX - HEAT INDEX
  VSB - VISIBILITY
$$



USA.gov is the U.S. government's official web portal to all federal, state and local government web resources and services.